Weather History for KBTA - March, 2014

Change the Weather History Date:

Saturday, March 1, 2014

  Actual Average (KOMA) Record (KOMA)
Temperature  
Mean Temperature 9 °F 33 °F  
Max Temperature 18 °F 44 °F 79 °F (1992)
Min Temperature 0 °F 23 °F -9 °F (1962)
Degree Days  
Heating Degree Days 56 32  
Month to date heating degree days 32  
Since 1 July heating degree days 4830  
Cooling Degree Days 0 0  
Month to date cooling degree days 0  
Year to date cooling degree days 0  
Moisture  
Dew Point -1 °F    
Average Humidity 70    
Maximum Humidity 79    
Minimum Humidity 64    
Precipitation  
Precipitation 0.00 in 0.05 in 1.33 in (1991)
Month to date precipitation 0.05  
Year to date precipitation 1.62  
Snow  
Snow 0.00 in 0.20 in - ()
Month to date snowfall 0.2  
Since 1 July snowfall 21.4  
Snow Depth -    
Sea Level Pressure  
Sea Level Pressure 30.34 in    
Wind  
Wind Speed 16 mph (North)    
Max Wind Speed 22 mph    
Max Gust Speed 30 mph    
Visibility 8 miles    
Events Snow    
T = Trace of Precipitation, MM = Missing Value Source: NWS Daily Summary

Daily Weather History Graph

Daily Weather History Graph

Search for Another Location

Airport or City:

Trip Planner

Search our weather history database for the weather conditions in past years. The results will help you decide how hot, cold, wet, or windy it might be!

Date:

Astronomy

Mar. 01, 2014 Rise Set
Actual Time 6:58 AM CST 6:15 PM CST
Civil Twilight 6:31 AM CST 6:42 PM CST
Nautical Twilight 5:59 AM CST 7:15 PM CST
Astronomical Twilight 5:27 AM CST 7:47 PM CST
Moon 6:52 AM CST (3/1) 7:04 PM CST (3/1)
Length of Visible Light 12h 11m
Length of Day
11h 16m
New Moon, 0% of the Moon is Illuminated
Mar 1
New Moon
Mar 8
First Quarter
Mar 16
Full
Mar 23
Last Quarter
Mar 30
New

Hourly Weather History & Observations

Time (CST) Temp. Windchill Dew Point Humidity Pressure Visibility Wind Dir Wind Speed Gust Speed Precip Events Conditions
12:15 AM 18.3 °F 3.6 °F 11.7 °F 75% 30.12 in 10.0 mi NNW 16.1 mph 25.3 mph N/A   Overcast
12:35 AM 17.8 °F 3.4 °F 11.1 °F 75% 30.15 in 10.0 mi NNW 15.0 mph - N/A   Overcast
12:55 AM 17.6 °F 1.7 °F 11.3 °F 76% 30.16 in 10.0 mi North 18.4 mph - N/A   Overcast
1:15 AM 17.4 °F 0.2 °F 10.2 °F 73% 30.17 in 10.0 mi NNW 21.9 mph 27.6 mph N/A Snow Light Snow
1:35 AM 17.2 °F 1.2 °F 8.6 °F 69% 30.19 in 10.0 mi North 18.4 mph 26.5 mph N/A   Overcast
1:55 AM 16.7 °F 0.1 °F 8.6 °F 70% 30.18 in 10.0 mi North 19.6 mph 29.9 mph N/A   Overcast
2:15 AM 15.8 °F -0.2 °F 7.7 °F 70% 30.18 in 10.0 mi North 17.3 mph 28.8 mph N/A   Overcast
2:35 AM 15.4 °F -1.6 °F 7.9 °F 72% 30.18 in 10.0 mi North 19.6 mph 25.3 mph N/A   Overcast
2:55 AM 14.7 °F -1.1 °F 6.8 °F 71% 30.16 in 10.0 mi North 16.1 mph 28.8 mph N/A   Overcast
3:15 AM 14.0 °F -3.0 °F 6.4 °F 72% 30.17 in 10.0 mi North 18.4 mph 25.3 mph N/A   Overcast
3:35 AM 14.0 °F -3.4 °F 6.8 °F 73% 30.19 in 10.0 mi North 19.6 mph 23.0 mph N/A   Overcast
3:55 AM 13.6 °F -1.3 °F 6.8 °F 74% 30.19 in 10.0 mi North 13.8 mph 21.9 mph N/A   Overcast
4:15 AM 13.6 °F -1.3 °F 7.0 °F 75% 30.21 in 10.0 mi North 13.8 mph - N/A   Overcast
4:35 AM 12.9 °F -2.8 °F 5.9 °F 74% 30.21 in 10.0 mi North 15.0 mph 24.2 mph N/A   Overcast
4:55 AM 12.4 °F -4.6 °F 5.5 °F 74% 30.22 in 10.0 mi North 17.3 mph - N/A   Overcast
5:15 AM 12.0 °F -4.0 °F 4.5 °F 72% 30.24 in 10.0 mi North 15.0 mph 18.4 mph N/A   Overcast
5:35 AM 12.0 °F -4.0 °F 4.6 °F 72% 30.26 in 10.0 mi North 15.0 mph 19.6 mph N/A   Overcast
5:55 AM 11.3 °F -3.6 °F 5.9 °F 79% 30.28 in 2.5 mi North 12.7 mph - N/A Snow Light Snow
6:15 AM 10.9 °F -4.1 °F 5.7 °F 79% 30.27 in 5.0 mi North 12.7 mph 20.7 mph N/A Snow Light Snow
6:35 AM 10.4 °F -4.8 °F 3.0 °F 72% 30.27 in 10.0 mi North 12.7 mph 17.3 mph N/A   Overcast
6:55 AM 9.5 °F -7.2 °F 0.5 °F 67% 30.25 in 10.0 mi NNE 15.0 mph 21.9 mph N/A   Overcast
7:15 AM 9.0 °F -7.3 °F -0.6 °F 65% 30.27 in 10.0 mi NNE 13.8 mph 20.7 mph N/A   Overcast
7:35 AM 8.6 °F -8.3 °F 0.5 °F 70% 30.28 in 10.0 mi NNE 15.0 mph 20.7 mph N/A   Overcast
7:55 AM 8.4 °F -9.2 °F -1.1 °F 65% 30.29 in 10.0 mi NNE 16.1 mph 20.7 mph N/A   Overcast
8:15 AM 7.7 °F -9.5 °F -1.7 °F 66% 30.33 in 10.0 mi North 15.0 mph 21.9 mph N/A   Overcast
8:35 AM 7.5 °F -9.1 °F -1.8 °F 66% 30.33 in 10.0 mi North 13.8 mph 21.9 mph N/A   Overcast
8:55 AM 7.5 °F -10.9 °F -2.0 °F 65% 30.37 in 10.0 mi North 17.3 mph 23.0 mph N/A   Overcast
9:15 AM 7.2 °F -12.4 °F -2.2 °F 66% 30.39 in 10.0 mi North 19.6 mph 24.2 mph N/A   Overcast
9:35 AM 6.8 °F -11.3 °F -1.8 °F 68% 30.37 in 10.0 mi North 16.1 mph 23.0 mph N/A   Overcast
9:55 AM 6.4 °F -12.3 °F -1.1 °F 71% 30.37 in 7.0 mi North 17.3 mph 25.3 mph N/A Snow Light Snow
10:15 AM 6.4 °F -12.3 °F -0.9 °F 72% 30.38 in 7.0 mi North 17.3 mph 24.2 mph N/A Snow Light Snow
10:35 AM 5.9 °F -12.4 °F -0.8 °F 74% 30.37 in 10.0 mi North 16.1 mph 19.6 mph N/A   Overcast
10:55 AM 5.7 °F -12.6 °F -1.1 °F 73% 30.38 in 3.0 mi North 16.1 mph 23.0 mph N/A   Haze
11:15 AM 5.7 °F -14.3 °F -2.6 °F 69% 30.36 in 10.0 mi North 19.6 mph - N/A   Overcast
11:35 AM 5.9 °F -12.4 °F -2.6 °F 68% 30.37 in 10.0 mi NNE 16.1 mph 19.6 mph N/A   Overcast
11:55 AM 5.9 °F -11.2 °F -2.0 °F 70% 30.38 in 10.0 mi North 13.8 mph 20.7 mph N/A   Overcast
12:15 PM 5.5 °F -11.6 °F -2.7 °F 69% 30.38 in 10.0 mi North 13.8 mph - N/A   Overcast
12:35 PM 6.1 °F -10.9 °F -2.7 °F 67% 30.39 in 10.0 mi North 13.8 mph 25.3 mph N/A   Overcast
12:55 PM 5.9 °F -11.8 °F -2.7 °F 68% 30.37 in 10.0 mi NNE 15.0 mph 19.6 mph N/A   Overcast
1:15 PM 5.7 °F -13.8 °F -3.6 °F 65% 30.38 in 10.0 mi North 18.4 mph 23.0 mph N/A   Overcast
1:35 PM 5.9 °F -12.4 °F -3.3 °F 66% 30.38 in 10.0 mi North 16.1 mph - N/A   Overcast
1:55 PM 5.9 °F -13.0 °F -2.9 °F 67% 30.37 in 10.0 mi NNE 17.3 mph 25.3 mph N/A   Overcast
2:15 PM 5.4 °F -12.5 °F -2.6 °F 70% 30.37 in 7.0 mi North 15.0 mph 19.6 mph N/A   Overcast
2:35 PM 4.8 °F -14.9 °F -3.1 °F 70% 30.38 in 4.0 mi North 18.4 mph 23.0 mph N/A   Haze
2:55 PM 4.6 °F -14.0 °F -3.1 °F 70% 30.37 in 5.0 mi North 16.1 mph 21.9 mph N/A   Haze
3:15 PM 4.1 °F -12.0 °F -3.1 °F 72% 30.37 in 3.0 mi North 11.5 mph - N/A   Haze
3:35 PM 3.9 °F -14.3 °F -3.1 °F 73% 30.38 in 3.0 mi North 15.0 mph - N/A   Haze
3:55 PM 3.2 °F -16.5 °F -3.3 °F 74% 30.38 in 3.0 mi North 17.3 mph - N/A Snow Light Snow
4:15 PM 3.2 °F -16.5 °F -4.0 °F 72% 30.37 in 7.0 mi North 17.3 mph 23.0 mph N/A   Overcast
4:35 PM 2.3 °F -18.2 °F -4.7 °F 72% 30.40 in 3.0 mi North 18.4 mph 21.9 mph N/A Snow Light Snow
4:55 PM 2.1 °F -16.6 °F -4.4 °F 74% 30.39 in 1.2 mi North 15.0 mph - N/A Snow Light Snow
5:15 PM 1.8 °F -16.4 °F -4.9 °F 74% 30.40 in 1.5 mi North 13.8 mph - N/A Snow Light Snow
5:35 PM 1.4 °F -18.8 °F -5.1 °F 74% 30.40 in 1.0 mi North 17.3 mph 23.0 mph N/A Snow Light Snow
5:55 PM 1.2 °F -18.4 °F -5.4 °F 74% 30.41 in 3.0 mi North 16.1 mph 21.9 mph N/A Snow Light Snow
6:15 PM 0.9 °F -21.2 °F -5.8 °F 74% 30.42 in 4.0 mi North 20.7 mph 25.3 mph N/A Snow Light Snow
6:35 PM 0.5 °F -18.0 °F -5.6 °F 75% 30.41 in 1.0 mi North 13.8 mph 25.3 mph N/A Snow Snow
6:55 PM 0.5 °F -18.7 °F -5.1 °F 77% 30.42 in 1.2 mi North 15.0 mph 21.9 mph N/A Snow Light Snow
7:15 PM 0.5 °F -20.6 °F -6.0 °F 74% 30.42 in 7.0 mi North 18.4 mph - N/A   Overcast
7:35 PM 0.9 °F -19.5 °F -6.7 °F 71% 30.44 in 10.0 mi North 17.3 mph - N/A   Overcast
7:55 PM 1.2 °F -18.4 °F -6.9 °F 69% 30.43 in 10.0 mi North 16.1 mph - N/A   Overcast
8:15 PM 1.2 °F -13.7 °F -7.1 °F 68% 30.42 in 10.0 mi North 9.2 mph - N/A   Overcast
8:35 PM 1.2 °F -17.8 °F -7.1 °F 68% 30.45 in 10.0 mi North 15.0 mph - N/A   Overcast
8:55 PM 1.4 °F -18.2 °F -7.8 °F 65% 30.45 in 10.0 mi North 16.1 mph 20.7 mph N/A   Overcast
9:15 PM 1.2 °F -18.4 °F -8.5 °F 64% 30.46 in 10.0 mi North 16.1 mph 20.7 mph N/A   Overcast
9:35 PM 1.2 °F -16.4 °F -7.6 °F 67% 30.46 in 10.0 mi North 12.7 mph 19.6 mph N/A   Overcast
9:55 PM 1.2 °F -18.4 °F -8.3 °F 64% 30.47 in 10.0 mi North 16.1 mph 20.7 mph N/A   Overcast
10:15 PM 1.0 °F -18.0 °F -8.7 °F 64% 30.47 in 10.0 mi North 15.0 mph 23.0 mph N/A   Overcast
10:35 PM 1.2 °F -17.1 °F -8.5 °F 64% 30.48 in 10.0 mi North 13.8 mph 20.7 mph N/A   Overcast
10:55 PM 1.2 °F -17.1 °F -8.5 °F 64% 30.49 in 10.0 mi North 13.8 mph 19.6 mph N/A   Overcast
11:15 PM 1.2 °F -16.4 °F -8.5 °F 64% 30.48 in 10.0 mi North 12.7 mph 19.6 mph N/A   Overcast
11:35 PM 1.2 °F -17.8 °F -8.1 °F 65% 30.48 in 10.0 mi North 15.0 mph - N/A   Overcast
11:55 PM 1.0 °F -19.3 °F -7.8 °F 66% 30.47 in 10.0 mi North 17.3 mph 23.0 mph N/A   Overcast